This is the latest recevied weather packets stored in our database for station/object K4PAD. If no packets are shown the sender has not sent any weather packets the latest 10 day(s).
| Time | Temp. | Humidity | Pressure | Rain* | Wind** | Luminosity | Snow |
|---|---|---|---|---|---|---|---|
| 1777419339 | 25° C | 69% | 1018.5 hPa | 0 mm | - | 28 W/m² | - |
| 1777419037 | 25° C | 69% | 1018.5 hPa | 0 mm | - | 40 W/m² | - |
| 1777418737 | 25° C | 68% | 1018.4 hPa | 0 mm | - | 51 W/m² | - |
| 1777418434 | 25.56° C | 67% | 1018.6 hPa | 0 mm | - | 59 W/m² | - |
| 1777418130 | 25.56° C | 67% | 1018.6 hPa | 0 mm | - | 71 W/m² | - |
| 1777417827 | 25.56° C | 66% | 1018.9 hPa | 0 mm | - | 68 W/m² | - |
| 1777417526 | 25.56° C | 66% | 1019 hPa | 0 mm | - | 93 W/m² | - |
| 1777417224 | 25.56° C | 67% | 1019.3 hPa | 0 mm | - | 101 W/m² | - |
| 1777416919 | 25.56° C | 67% | 1019.2 hPa | 0 mm | - | 113 W/m² | - |
| 1777416615 | 25.56° C | 67% | 1019.3 hPa | 0 mm | - | 117 W/m² | - |
| 1777416311 | 25.56° C | 67% | 1019.3 hPa | 0 mm | - | 140 W/m² | - |
| 1777416010 | 26.11° C | 65% | 1019.6 hPa | 0 mm | - | 155 W/m² | - |
| 1777415706 | 26.11° C | 65% | 1019.6 hPa | 0 mm | - | 152 W/m² | - |
| 1777415402 | 26.11° C | 66% | 1019.6 hPa | 0 mm | - | 177 W/m² | - |
| 1777415096 | 26.11° C | 66% | 1019.7 hPa | 0 mm | - | 211 W/m² | - |
| 1777414796 | 26.11° C | 65% | 1019.6 hPa | 0 mm | - | 238 W/m² | - |
| 1777414492 | 26.11° C | 65% | 1019.8 hPa | 0 mm | - | 256 W/m² | - |
| 1777414191 | 26.11° C | 64% | 1019.8 hPa | 0 mm | - | 235 W/m² | - |
| 1777413887 | 26.67° C | 63% | 1019.6 hPa | 0 mm | - | 297 W/m² | - |
| 1777413582 | 26.67° C | 63% | 1019.8 hPa | 0 mm | - | 323 W/m² | - |
| 1777413279 | 26.67° C | 62% | 1019.8 hPa | 0 mm | - | 381 W/m² | - |
| 1777412974 | 26.67° C | 62% | 1019.8 hPa | 0 mm | - | 361 W/m² | - |
| 1777412673 | 26.67° C | 62% | 1019.9 hPa | 0 mm | - | 344 W/m² | - |
| 1777412371 | 27.22° C | 61% | 1020.3 hPa | 0 mm | - | 400 W/m² | - |
| 1777412067 | 27.22° C | 60% | 1020.1 hPa | 0 mm | - | 422 W/m² | - |
* Rain latest hour (hover to see other rain measurements)
** Current wind speed in m/s (hover to see current wind gust speed)